Location: Mentone
(34.5413°N, 85.5351°W)
Time: 18:25:40
(UTC-06:00)

Cosmos 2150 Rocket - Visible Passes

Search period start: 22 January 2017 00:00
Search period end: 01 February 2017 00:00
Orbit: 749 x 808 km, 74.0° (Epoch: 22 January)

Date Brightness Start Highest point End Pass type
(mag) Time Alt. Az. Time Alt. Az. Time Alt. Az.
22 Jan 7.5 04:29:55 10° ESE 04:30:58 11° E 04:32:02 10° E visible
22 Jan 4.1 06:07:07 10° SSW 06:12:32 74° WNW 06:17:56 10° NNE visible
23 Jan 4.5 05:33:22 10° S 05:38:45 68° ESE 05:44:05 10° NNE visible
24 Jan 5.5 05:00:01 10° S 05:05:02 40° ESE 05:10:01 10° NNE visible
25 Jan 6.3 04:27:06 10° SSE 04:31:22 24° E 04:35:37 10° NE visible
25 Jan 4.7 06:08:31 10° SW 06:13:25 35° WNW 06:18:18 10° N visible
26 Jan 7.0 03:55:00 10° SE 03:57:47 14° E 04:00:34 10° ENE visible
26 Jan 4.1 05:34:12 10° SSW 05:39:31 57° WNW 05:44:48 10° N visible
27 Jan 4.0 05:00:16 10° SSW 05:05:41 87° ESE 05:11:04 10° NNE visible
28 Jan 4.8 04:26:41 10° S 04:31:55 52° ESE 04:37:07 10° NNE visible
28 Jan 5.4 06:11:01 10° WSW 06:14:29 17° WNW 06:17:57 10° NNW visible
29 Jan 5.7 03:53:32 10° SSE 03:58:14 31° E 04:02:54 10° NE visible
29 Jan 4.9 05:35:55 10° WSW 05:40:27 27° WNW 05:44:58 10° N visible
30 Jan 6.4 03:24:26 19° E 03:24:36 19° E 03:28:15 10° NE visible
30 Jan 4.3 05:05:06 36° WSW 05:06:30 44° WNW 05:11:35 10° N visible
31 Jan 4.3 04:33:47 54° N 04:33:47 54° N 04:37:57 10° NNE visible
